Barter Island, AK

2:04 AM AKDT on July 24, 2017 (GMT -0800)
Barter Island LRRS

Weather History for PABA - February, 2014

Change the Weather History Date:

Wednesday, February 26, 2014

  Actual Average Record
Temperature  
Mean Temperature 2 °F -  
Max Temperature 12 °F -5 °F 28 °F (2015)
Min Temperature -8 °F -17 °F -40 °F (1997)
Degree Days  
Heating Degree Days 63    
Moisture  
Dew Point 1 °F    
Average Humidity 87    
Maximum Humidity 92    
Minimum Humidity 75    
Precipitation  
Precipitation 0.00 in - - ()
Sea Level Pressure  
Sea Level Pressure 30.33 in    
Wind  
Wind Speed 19 mph (NW)    
Max Wind Speed 28 mph    
Max Gust Speed 30 mph    
Visibility 7 miles    
Events Snow    
Averages and records for this station are not official NWS values.
T = Trace of Precipitation, MM = Missing Value Source: NWS Daily Summary

Daily Weather History Graph

Daily Weather History Graph

Search for Another Location

Airport or City:

Trip Planner

Search our weather history database for the weather conditions in past years. The results will help you decide how hot, cold, wet, or windy it might be!

Date:

Astronomy

Feb. 26, 2014 Rise Set
Actual Time 8:14 AM AKST 5:21 PM AKST
Civil Twilight 7:11 AM AKST 6:24 PM AKST
Nautical Twilight 6:00 AM AKST 7:35 PM AKST
Astronomical Twilight 4:47 AM AKST 8:50 PM AKST
Moon 7:29 AM AKST (2/26) 1:33 PM AKST (2/26)
Length of Visible Light 11h 13m
Length of Day
9h 06m
Waning Crescent, 9% of the Moon is Illuminated
Feb 26
Waning Crescent
Feb 28
New
Mar 8
First Quarter
Mar 16
Full
Mar 23
Last Quarter

Hourly Weather History & Observations

Time (AKST) Temp. Windchill Dew Point Humidity Pressure Visibility Wind Dir Wind Speed Gust Speed Precip Events Conditions
12:01 AM 12.9 °F -7.6 °F 10.9 °F 92% 30.21 in 8.0 mi West 27.6 mph - N/A   Overcast
12:13 AM 12.2 °F -7.5 °F 10.4 °F 92% 30.21 in 10.0 mi West 24.2 mph - N/A   Overcast
1:01 AM 12.0 °F -6.0 °F 9.0 °F 88% 30.22 in 10.0 mi West 19.6 mph - N/A   Overcast
1:48 AM 12.2 °F -6.3 °F 10.4 °F 92% 30.23 in 9.0 mi WNW 20.7 mph - 0.00 in Snow Light Snow
2:01 AM 12.9 °F -4.9 °F 10.9 °F 92% 30.23 in 9.0 mi WNW 19.6 mph - 0.00 in Snow Light Snow
3:01 AM 12.9 °F -5.3 °F 10.0 °F 88% 30.25 in 9.0 mi WNW 20.7 mph 24.2 mph 0.00 in Snow Light Snow
3:45 AM 12.2 °F -4.3 °F 8.6 °F 85% 30.25 in 10.0 mi WNW 16.1 mph - 0.00 in   Overcast
4:01 AM 12.0 °F -3.4 °F 9.0 °F 88% 30.25 in 10.0 mi WNW 13.8 mph - 0.00 in   Overcast
4:13 AM 12.2 °F -6.7 °F 8.6 °F 85% 30.26 in 10.0 mi WNW 21.9 mph - N/A   Overcast
5:01 AM 12.0 °F -8.1 °F 10.0 °F 92% 30.26 in 9.0 mi WNW 25.3 mph - 0.00 in Snow Light Snow
5:36 AM 10.4 °F -9.1 °F 8.6 °F 92% 30.26 in 9.0 mi West 21.9 mph - 0.00 in   Scattered Clouds
6:01 AM 10.4 °F -9.9 °F 6.8 °F 85% 30.27 in 10.0 mi West 24.2 mph - 0.00 in   Mostly Cloudy
6:26 AM 8.6 °F -11.0 °F 6.8 °F 92% 30.27 in 10.0 mi West 20.7 mph - 0.00 in   Scattered Clouds
7:01 AM 8.1 °F -10.7 °F 6.1 °F 92% 30.27 in 10.0 mi WNW 18.4 mph - 0.00 in Snow Light Snow
7:13 AM 8.6 °F -10.0 °F 6.8 °F 92% 30.27 in 9.0 mi WNW 18.4 mph - 0.00 in Snow Light Snow
7:22 AM 8.6 °F -11.0 °F 6.8 °F 92% 30.28 in 9.0 mi WNW 20.7 mph - 0.00 in Snow Light Snow
8:01 AM 9.0 °F -11.4 °F 7.0 °F 92% 30.28 in 3.0 mi WNW 23.0 mph 29.9 mph 0.00 in Snow Light Snow
8:48 AM 8.6 °F -10.5 °F 6.8 °F 92% 30.29 in 2.0 mi WNW 19.6 mph - 0.00 in Snow Light Snow
9:01 AM 8.6 °F -9.5 °F 6.8 °F 92% 30.29 in 1.8 mi WNW 17.3 mph 26.5 mph 0.00 in Snow Light Snow
9:13 AM 8.6 °F -9.5 °F 6.8 °F 92% 30.29 in 1.0 mi WNW 17.3 mph 24.2 mph 0.00 in Snow Light Snow
9:24 AM 8.6 °F -9.5 °F 6.8 °F 92% 30.29 in 1.5 mi WNW 17.3 mph - 0.00 in Snow Light Snow
9:36 AM 8.6 °F -8.9 °F 6.8 °F 92% 30.29 in 2.5 mi WNW 16.1 mph - 0.00 in Snow Light Snow
10:01 AM 9.0 °F -7.9 °F 7.0 °F 92% 30.30 in - WNW 15.0 mph - N/A Snow Light Snow
10:10 AM 8.6 °F -8.3 °F 6.8 °F 92% 30.30 in 2.0 mi NW 15.0 mph - 0.00 in Snow Light Snow
10:33 AM 8.6 °F -10.0 °F 6.8 °F 92% 30.31 in 1.5 mi NW 18.4 mph - N/A Snow Light Snow
10:50 AM 8.6 °F -8.3 °F 6.8 °F 92% 30.31 in 2.0 mi NW 15.0 mph - N/A Snow Light Snow
11:01 AM 6.8 °F -10.7 °F 5.0 °F 92% 30.31 in 2.0 mi NW 15.0 mph - N/A Snow Light Snow
11:14 AM 6.8 °F -8.6 °F 5.0 °F 92% 30.32 in 3.0 mi NW 11.5 mph - N/A Snow Light Snow
12:01 PM 3.9 °F -14.3 °F 1.0 °F 88% 30.34 in - North 15.0 mph - N/A Snow Light Snow
12:29 PM 3.2 °F -13.9 °F -0.4 °F 85% 30.36 in 8.0 mi NNW 12.7 mph - 0.00 in Snow Light Snow
12:43 PM 1.4 °F -16.1 °F -2.2 °F 85% 30.36 in 7.0 mi NNW 12.7 mph - 0.00 in Snow Light Snow
1:01 PM 1.9 °F -18.1 °F -2.9 °F 80% 30.36 in 7.0 mi NNW 17.3 mph - 0.00 in Snow Light Snow
1:52 PM 1.4 °F -16.1 °F -4.0 °F 78% 30.38 in 7.0 mi NNW 12.7 mph - 0.00 in Snow Light Snow
2:01 PM 1.0 °F -17.3 °F -5.1 °F 75% 30.37 in 7.0 mi NNW 13.8 mph - 0.00 in Snow Light Snow
2:37 PM 1.4 °F -15.3 °F -4.0 °F 78% 30.38 in 6.0 mi North 11.5 mph - 0.00 in Snow Light Snow
3:01 PM 1.0 °F -14.9 °F -5.1 °F 75% 30.40 in 7.0 mi NNW 10.4 mph - 0.00 in Snow Light Snow
4:01 PM -0.0 °F -14.2 °F -4.0 °F 83% 30.41 in 7.0 mi North 8.1 mph - 0.00 in Snow Light Snow
4:28 PM -0.4 °F -17.6 °F -5.8 °F 78% 30.41 in 6.0 mi North 11.5 mph - 0.00 in Snow Light Snow
4:36 PM -0.4 °F -15.7 °F -5.8 °F 78% 30.42 in 7.0 mi North 9.2 mph - 0.00 in Snow Light Snow
5:01 PM -2.0 °F -19.6 °F -6.0 °F 83% 30.42 in 8.0 mi NNE 11.5 mph - 0.00 in Snow Light Snow
5:27 PM -2.2 °F -18.9 °F -5.8 °F 85% 30.42 in 9.0 mi NNE 10.4 mph - 0.00 in Snow Light Snow
5:53 PM -2.2 °F -18.0 °F -7.6 °F 78% 30.42 in 9.0 mi NE 9.2 mph - 0.00 in Snow Light Snow
6:01 PM -2.9 °F -17.7 °F -7.1 °F 82% 30.42 in 9.0 mi NE 8.1 mph - 0.00 in   Overcast
7:01 PM -4.0 °F -19.0 °F -9.0 °F 79% 30.43 in 10.0 mi NE 8.1 mph - N/A   Overcast
7:48 PM -7.6 °F -25.7 °F -11.2 °F 84% 30.43 in 10.0 mi ENE 10.4 mph - N/A   Scattered Clouds
8:01 PM -7.1 °F -23.9 °F -11.0 °F 83% 30.43 in 10.0 mi East 9.2 mph - N/A   Clear
9:01 PM -8.0 °F -27.1 °F -11.9 °F 83% 30.42 in 10.0 mi East 11.5 mph - N/A   Clear
10:01 PM -8.0 °F -28.8 °F -11.9 °F 83% 30.42 in 10.0 mi East 13.8 mph - N/A   Clear
11:01 PM -7.1 °F -29.1 °F -11.0 °F 83% 30.40 in 10.0 mi East 16.1 mph - N/A   Clear
11:36 PM -7.6 °F -30.5 °F -11.2 °F 84% 30.40 in 9.0 mi East 17.3 mph - N/A   Mostly Cloudy
11:52 PM -7.6 °F -31.1 °F -11.2 °F 84% 30.40 in 6.0 mi East 18.4 mph - N/A   Scattered Clouds